Jackson, MI

10:48 PM EDT on October 15, 2019 (GMT -0400)
Jackson County-Reynolds

Weather History for KJXN - August, 2019

Change the Weather History Date:

Wednesday, August 21, 2019

  Actual Average Record
Temperature  
Mean Temperature 74 °F 69 °F  
Max Temperature 84 °F 80 °F 97 °F (1955)
Min Temperature 64 °F 59 °F 37 °F (1950)
Degree Days  
Heating Degree Days 0 1  
Month to date heating degree days 0 17  
Since 1 June heating degree days 58 83  
Since 1 July heating degree days 0 28  
Cooling Degree Days 10 5  
Month to date cooling degree days 142 120  
Year to date cooling degree days 547 485  
Since 1 June cooling degree days 537 448  
Growing Degree Days 24 (Base 50)    
Moisture  
Dew Point 66 °F    
Average Humidity 80    
Maximum Humidity 93    
Minimum Humidity 55    
Precipitation  
Precipitation 0.06 in 0.11 in 1.46 in (1966)
Month to date precipitation 0.51 2.39  
Year to date precipitation 20.70 19.84  
Sea Level Pressure  
Sea Level Pressure 29.92 in    
Wind  
Wind Speed 4 mph ()    
Max Wind Speed 16 mph    
Max Gust Speed 24 mph    
Visibility 8.7 miles    
Events Rain    
T = Trace of Precipitation, MM = Missing Value Source: Averaged Metar Reports

Daily Weather History Graph

Daily Weather History Graph

Search for Another Location

Airport or City:

Astronomy

Aug. 21, 2019 Rise Set
Actual Time 6:51 AM EDT 8:29 PM EDT
Civil Twilight 6:21 AM EDT 8:59 PM EDT
Nautical Twilight 5:45 AM EDT 9:35 PM EDT
Astronomical Twilight 5:07 AM EDT 10:13 PM EDT
Moon 11:40 PM EDT (8/21) 12:32 PM EDT (8/21)
Length of Visible Light 14h 37m
Length of Day
13h 38m
Waning Gibbous, 69% of the Moon is Illuminated
Aug 21
Waning Gibbous
Aug 23
Last Quarter
Aug 30
New
Sep 5
First Quarter
Sep 14
Full

Hourly Weather History & Observations

Time (EDT) Temp. Heat Index Dew Point Humidity Pressure Visibility Wind Dir Wind Speed Gust Speed Precip Events Conditions
12:56 AM 69.1 °F - 66.0 °F 90% 29.95 in 10.0 mi Calm Calm - N/A   Overcast
1:56 AM 69.1 °F - 66.0 °F 90% 29.94 in 9.0 mi West 4.6 mph - N/A   Mostly Cloudy
2:56 AM 66.9 °F - 64.9 °F 93% 29.93 in 6.0 mi SW 3.5 mph - N/A   Clear
3:56 AM 66.0 °F - 64.0 °F 93% 29.94 in 4.0 mi Calm Calm - N/A   Clear
4:56 AM 64.9 °F - 63.0 °F 93% 29.93 in 6.0 mi WSW 3.5 mph - N/A   Clear
5:56 AM 66.9 °F - 63.0 °F 87% 29.92 in 10.0 mi West 4.6 mph - N/A   Clear
6:56 AM 64.9 °F - 63.0 °F 93% 29.93 in 5.0 mi Calm Calm - N/A   Clear
7:56 AM 66.0 °F - 64.0 °F 93% 29.92 in 5.0 mi Calm Calm - N/A   Clear
8:56 AM 71.1 °F - 66.0 °F 84% 29.91 in 10.0 mi West 3.5 mph - N/A   Clear
9:56 AM 73.9 °F - 66.9 °F 79% 29.93 in 10.0 mi WSW 5.8 mph - N/A   Clear
10:56 AM 78.1 °F - 68.0 °F 71% 29.94 in 10.0 mi West 6.9 mph - N/A   Clear
11:56 AM 80.1 °F 82.7 °F 68.0 °F 67% 29.94 in 10.0 mi SW 8.1 mph - N/A   Clear
12:56 PM 82.0 °F 84.5 °F 66.9 °F 60% 29.93 in 10.0 mi West 10.4 mph - N/A   Partly Cloudy
1:56 PM 82.9 °F 85.4 °F 66.9 °F 58% 29.93 in 10.0 mi SW 10.4 mph 18.4 mph N/A   Scattered Clouds
2:56 PM 84.0 °F 86.5 °F 66.9 °F 56% 29.91 in 10.0 mi SW 11.5 mph - N/A   Clear
3:56 PM 82.9 °F 85.0 °F 66.0 °F 56% 29.91 in 10.0 mi WSW 10.4 mph 18.4 mph N/A   Partly Cloudy
4:56 PM 80.1 °F 82.7 °F 68.0 °F 67% 29.91 in 9.0 mi WSW 9.2 mph 19.6 mph 0.00 in Rain Light Rain
5:37 PM 73.9 °F - 69.1 °F 85% 29.93 in 2.5 mi West 8.1 mph 19.6 mph 0.05 in Rain Light Rain
5:56 PM 73.9 °F - 69.1 °F 85% 29.92 in 10.0 mi WSW 5.8 mph - 0.06 in   Scattered Clouds
6:56 PM 75.0 °F - 70.0 °F 84% 29.91 in 10.0 mi WSW 6.9 mph - N/A   Mostly Cloudy
7:56 PM 73.9 °F - 69.1 °F 85% 29.90 in 10.0 mi West 3.5 mph - N/A   Clear
8:56 PM 73.0 °F - 68.0 °F 84% 29.89 in 10.0 mi West 3.5 mph - N/A   Mostly Cloudy
9:56 PM 72.0 °F - 68.0 °F 87% 29.92 in 10.0 mi Calm Calm - N/A   Overcast
10:56 PM 72.0 °F - 68.0 °F 87% 29.93 in 10.0 mi West 4.6 mph - N/A   Partly Cloudy
11:56 PM 72.0 °F - 61.0 °F 68% 29.94 in 10.0 mi NW 5.8 mph - N/A   Partly Cloudy